{"data":{"norad_id":48796,"intl_designator":"2021-045AF","name":"ONEWEB-0190","alt_names":[],"object_type":"PAYLOAD","status":"ACTIVE","operator":null,"country":"UK","launch_date":"2021-05-28","launch_site_code":"VOSTO","launch_vehicle":null,"mission":null,"orbit_class":"UNKNOWN","rcs_meters":null,"size_class":null,"mass_kg":null,"dimensions":null,"purposes":["comms"],"wikipedia_slug":null,"has_3d_model":false,"image_url":null,"decayed_at":null,"tle_current":{"epoch":"2026-05-25T00:53:14.549280Z","epoch_age_seconds":71760,"freshness":"FRESH","line1":"1 48796U 21045AF  26145.03697395 -.00000064  00000+0 -20442-3 0  9992","line2":"2 48796  87.8989 263.8097 0001416  81.1389 278.9901 13.15549456241323","mean_motion":13.15549456,"eccentricity":0.0001416,"inclination_deg":87.8989,"raan_deg":263.8097,"arg_perigee_deg":81.1389,"mean_anomaly_deg":278.9901,"bstar":-0.00020442,"rev_number":24132,"period_min":109.45996696912,"perigee_km":1200.6939728984,"apogee_km":1202.8406017925,"semimajor_km":7579.9042873454,"source":"CELESTRAK","updated_at":"2026-05-25T13:38:22.447763Z"}}}